When you browse on this site, cookies collect data to enhance your experience and personalize the content and advertising you see.
Visit our Privacy Policy to learn more. By continuing to use the site, you agree to this use of cookies and data.
  • In Hungary
  • List of Countries
  • For 7 days
  • Water Temperature
  • Weather Map
  • News
  • Weather Widgets
  • user-avatar
    Login

    Hourly Weather Shipilovka

    Today, 22 October, Tuesday

    Time Temperature Precipitation Wind Pressure Humidity
    00:00 +13°C° 0 mm 6 mps 750 mmHg 82%
    01:00 +12°C° 0 mm 5 mps 750 mmHg 84%
    02:00 +12°C° 0 mm 4 mps 750 mmHg 87%
    03:00 +11°C° 0 mm 3 mps 751 mmHg 90%
    04:00 +11°C° 0.1 mm 3 mps 751 mmHg 91%
    05:00 +11°C° 0.1 mm 3 mps 751 mmHg 91%
    06:00 +12°C° 0.1 mm 2 mps 751 mmHg 92%
    07:00 +12°C° 0.5 mm 2 mps 751 mmHg 93%
    08:00 +12°C° 0.5 mm 2 mps 751 mmHg 94%
    09:00 +11°C° 0 mm 3 mps 751 mmHg 95%
    10:00 +13°C° 0 mm 2 mps 751 mmHg 87%
    11:00 +14°C° 0 mm 2 mps 752 mmHg 80%
    12:00 +14°C° 0 mm 2 mps 752 mmHg 72%
    13:00 +15°C° 0 mm 2 mps 752 mmHg 69%
    14:00 +15°C° 0 mm 2 mps 752 mmHg 65%
    15:00 +14°C° 0 mm 3 mps 752 mmHg 62%
    16:00 +14°C° 0 mm 2 mps 752 mmHg 67%
    17:00 +12°C° 0 mm 2 mps 752 mmHg 73%
    18:00 +11°C° 0 mm 1 mps 752 mmHg 78%
    19:00 +11°C° 0 mm 1 mps 752 mmHg 80%
    20:00 +10°C° 0 mm 1 mps 752 mmHg 82%
    21:00 +9°C° 0 mm 0 mps 752 mmHg 84%
    22:00 +10°C° 0 mm 1 mps 752 mmHg 85%
    23:00 +9°C° 0 mm 1 mps 752 mmHg 86%

    Tomorrow, 23 October, Wednesday

    Time Temperature Precipitation Wind Pressure Humidity
    00:00 +9°C° 0 mm 1 mps 752 mmHg 87%
    01:00 +9°C° 0 mm 1 mps 752 mmHg 88%
    02:00 +7°C° 0 mm 2 mps 752 mmHg 89%
    03:00 +7°C° 0 mm 2 mps 752 mmHg 89%
    04:00 +7°C° 0 mm 2 mps 752 mmHg 90%
    05:00 +7°C° 0 mm 3 mps 751 mmHg 91%
    06:00 +7°C° 0 mm 3 mps 751 mmHg 92%
    07:00 +7°C° 0 mm 4 mps 751 mmHg 90%
    08:00 +8°C° 0 mm 4 mps 750 mmHg 88%
    09:00 +9°C° 0 mm 5 mps 750 mmHg 85%
    10:00 +12°C° 0 mm 5 mps 750 mmHg 83%
    11:00 +13°C° 0 mm 6 mps 750 mmHg 81%
    12:00 +14°C° 0 mm 6 mps 750 mmHg 78%
    13:00 +14°C° 0.5 mm 5 mps 749 mmHg 82%
    14:00 +13°C° 0.5 mm 5 mps 749 mmHg 86%
    15:00 +13°C° 0.5 mm 4 mps 749 mmHg 90%
    16:00 +12°C° 0 mm 4 mps 749 mmHg 91%
    17:00 +12°C° 0 mm 4 mps 749 mmHg 93%
    18:00 +12°C° 0 mm 4 mps 749 mmHg 94%
    19:00 +12°C° 0 mm 3 mps 749 mmHg 94%
    20:00 +11°C° 0 mm 3 mps 749 mmHg 95%
    21:00 +11°C° 0 mm 3 mps 749 mmHg 95%
    22:00 +12°C° 0 mm 2 mps 749 mmHg 96%
    23:00 +12°C° 0 mm 2 mps 749 mmHg 96%

    Day after tomorrow, 24 October, Thursday

    Time Temperature Precipitation Wind Pressure Humidity
    00:00 +10°C° 0 mm 2 mps 749 mmHg 96%
    01:00 +11°C° 0 mm 1 mps 749 mmHg 95%
    02:00 +12°C° 0 mm 1 mps 749 mmHg 94%
    03:00 +12°C° 0 mm 1 mps 749 mmHg 93%
    04:00 +11°C° 0 mm 0 mps 750 mmHg 91%
    05:00 +10°C° 0 mm 0 mps 750 mmHg 90%
    06:00 +10°C° 0 mm 0 mps 750 mmHg 88%
    07:00 +11°C° 0 mm 0 mps 750 mmHg 86%
    08:00 +11°C° 0 mm 0 mps 750 mmHg 84%
    09:00 +11°C° 0 mm 0 mps 750 mmHg 82%
    10:00 +13°C° 0 mm 1 mps 750 mmHg 77%
    11:00 +14°C° 0 mm 1 mps 750 mmHg 72%
    12:00 +15°C° 0 mm 1 mps 750 mmHg 68%
    13:00 +15°C° 0 mm 1 mps 750 mmHg 67%
    14:00 +14°C° 0 mm 0 mps 750 mmHg 66%
    15:00 +14°C° 0 mm 0 mps 750 mmHg 65%
    16:00 +14°C° 0 mm 0 mps 750 mmHg 68%
    17:00 +14°C° 0 mm 1 mps 750 mmHg 71%
    18:00 +14°C° 0 mm 1 mps 750 mmHg 74%
    19:00 +13°C° 0 mm 1 mps 750 mmHg 76%
    20:00 +13°C° 0 mm 1 mps 751 mmHg 78%
    21:00 +13°C° 0 mm 1 mps 751 mmHg 80%
    22:00 +12°C° 0 mm 1 mps 751 mmHg 81%
    23:00 +12°C° 0 mm 1 mps 751 mmHg 81%

    25 October, Friday

    Time Temperature Precipitation Wind Pressure Humidity
    00:00 +12°C° 0 mm 1 mps 751 mmHg 82%
    01:00 +12°C° 0 mm 1 mps 751 mmHg 82%
    02:00 +11°C° 0 mm 1 mps 751 mmHg 82%
    03:00 +11°C° 0 mm 1 mps 750 mmHg 82%
    04:00 +11°C° 0 mm 1 mps 750 mmHg 83%
    05:00 +11°C° 0 mm 1 mps 750 mmHg 84%
    06:00 +11°C° 0 mm 1 mps 750 mmHg 85%
    07:00 +11°C° 0 mm 1 mps 751 mmHg 84%
    08:00 +11°C° 0 mm 1 mps 751 mmHg 84%
    09:00 +12°C° 0 mm 1 mps 751 mmHg 83%
    10:00 +12°C° 0 mm 1 mps 751 mmHg 80%
    11:00 +13°C° 0 mm 2 mps 751 mmHg 77%
    12:00 +13°C° 0 mm 2 mps 751 mmHg 74%
    13:00 +14°C° 0 mm 2 mps 751 mmHg 73%
    14:00 +14°C° 0 mm 2 mps 751 mmHg 71%
    15:00 +14°C° 0 mm 2 mps 751 mmHg 70%
    16:00 +14°C° 0 mm 2 mps 751 mmHg 72%
    17:00 +13°C° 0 mm 2 mps 751 mmHg 75%
    18:00 +13°C° 0 mm 2 mps 751 mmHg 77%
    19:00 +12°C° 0 mm 2 mps 751 mmHg 80%
    20:00 +12°C° 0 mm 2 mps 751 mmHg 84%
    21:00 +11°C° 0 mm 3 mps 752 mmHg 87%
    22:00 +12°C° 0 mm 2 mps 751 mmHg 89%
    23:00 +10°C° 0 mm 2 mps 751 mmHg 92%

    26 October, Saturday

    Time Temperature Precipitation Wind Pressure Humidity
    00:00 +10°C° 0 mm 2 mps 751 mmHg 94%
    01:00 +9°C° 0 mm 2 mps 751 mmHg 94%
    02:00 +9°C° 0 mm 2 mps 751 mmHg 94%
    03:00 +9°C° 0 mm 2 mps 751 mmHg 94%
    04:00 +9°C° 0 mm 2 mps 751 mmHg 92%
    05:00 +8°C° 0 mm 2 mps 751 mmHg 90%
    06:00 +8°C° 0 mm 3 mps 751 mmHg 89%
    07:00 +9°C° 0 mm 3 mps 752 mmHg 86%
    08:00 +9°C° 0 mm 3 mps 752 mmHg 83%
    09:00 +10°C° 0 mm 3 mps 752 mmHg 81%
    10:00 +11°C° 0 mm 4 mps 752 mmHg 76%
    11:00 +12°C° 0 mm 4 mps 752 mmHg 71%
    12:00 +14°C° 0 mm 5 mps 752 mmHg 67%
    13:00 +14°C° 0 mm 5 mps 751 mmHg 66%
    14:00 +14°C° 0 mm 5 mps 751 mmHg 66%
    15:00 +14°C° 0 mm 5 mps 751 mmHg 66%
    16:00 +13°C° 0 mm 4 mps 751 mmHg 71%
    17:00 +12°C° 0 mm 3 mps 751 mmHg 76%
    18:00 +11°C° 0 mm 3 mps 751 mmHg 81%
    19:00 +11°C° 0 mm 3 mps 751 mmHg 82%
    20:00 +10°C° 0 mm 3 mps 751 mmHg 83%
    21:00 +10°C° 0 mm 3 mps 751 mmHg 84%
    22:00 +10°C° 0 mm 3 mps 751 mmHg 84%
    23:00 +9°C° 0 mm 3 mps 751 mmHg 85%

    27 October, Sunday

    Time Temperature Precipitation Wind Pressure Humidity
    00:00 +9°C° 0 mm 3 mps 750 mmHg 85%
    01:00 +9°C° 0 mm 3 mps 750 mmHg 84%
    02:00 +7°C° 0 mm 4 mps 750 mmHg 83%
    03:00 +7°C° 0 mm 4 mps 750 mmHg 82%
    04:00 +7°C° 0 mm 4 mps 750 mmHg 82%
    05:00 +7°C° 0 mm 4 mps 749 mmHg 82%
    06:00 +6°C° 0 mm 4 mps 749 mmHg 82%
    07:00 +7°C° 0 mm 4 mps 749 mmHg 78%
    08:00 +8°C° 0 mm 5 mps 749 mmHg 74%
    09:00 +9°C° 0 mm 5 mps 749 mmHg 70%
    10:00 +10°C° 0 mm 5 mps 748 mmHg 65%
    11:00 +11°C° 0 mm 6 mps 748 mmHg 61%
    12:00 +13°C° 0 mm 6 mps 748 mmHg 56%
    13:00 +13°C° 0 mm 6 mps 747 mmHg 57%
    14:00 +13°C° 0 mm 6 mps 746 mmHg 58%
    15:00 +14°C° 0 mm 6 mps 746 mmHg 59%
    16:00 +13°C° 0 mm 6 mps 745 mmHg 63%
    17:00 +11°C° 0 mm 6 mps 745 mmHg 68%
    18:00 +10°C° 0 mm 6 mps 745 mmHg 72%
    19:00 +10°C° 0 mm 6 mps 744 mmHg 72%
    20:00 +10°C° 0 mm 6 mps 744 mmHg 72%
    21:00 +9°C° 0 mm 6 mps 744 mmHg 71%
    22:00 +9°C° 0 mm 6 mps 743 mmHg 72%
    23:00 +9°C° 0 mm 7 mps 742 mmHg 72%

    28 October, Monday

    Time Temperature Precipitation Wind Pressure Humidity
    00:00 +9°C° 0 mm 7 mps 742 mmHg 73%
    01:00 +9°C° 0 mm 7 mps 741 mmHg 74%
    02:00 +9°C° 0 mm 7 mps 741 mmHg 75%
    03:00 +8°C° 0 mm 7 mps 740 mmHg 76%
    04:00 +8°C° 0.1 mm 6 mps 739 mmHg 78%
    05:00 +8°C° 0.1 mm 6 mps 739 mmHg 80%
    06:00 +8°C° 0.1 mm 6 mps 738 mmHg 81%
    07:00 +8°C° 1.4 mm 5 mps 738 mmHg 84%
    08:00 +8°C° 1.4 mm 5 mps 738 mmHg 87%
    09:00 +7°C° 1.4 mm 4 mps 738 mmHg 90%
    10:00 +8°C° 0.2 mm 5 mps 738 mmHg 81%
    11:00 +8°C° 0.2 mm 5 mps 738 mmHg 72%
    12:00 +9°C° 0.2 mm 6 mps 738 mmHg 63%
    13:00 +8°C° 0 mm 6 mps 738 mmHg 63%
    14:00 +8°C° 0 mm 6 mps 738 mmHg 62%
    15:00 +8°C° 0 mm 6 mps 738 mmHg 62%
    16:00 +7°C° 0 mm 6 mps 738 mmHg 65%
    17:00 +5°C° 0 mm 6 mps 739 mmHg 68%
    18:00 +5°C° 0 mm 6 mps 739 mmHg 71%
    19:00 +4°C° 0 mm 6 mps 739 mmHg 72%
    20:00 +4°C° 0 mm 6 mps 739 mmHg 72%
    21:00 +4°C° 0 mm 6 mps 739 mmHg 72%
    22:00 +3°C° 0 mm 6 mps 739 mmHg 75%
    23:00 +3°C° 0 mm 6 mps 739 mmHg 78%
    Show more